{"data":{"norad_id":49167,"epoch":"2026-05-25T02:29:52.175040Z","epoch_age_seconds":59830,"freshness":"FRESH","line1":"1 49167U 21082AP  26145.10407610  .00000729  00000+0  68896-4 0  9995","line2":"2 49167  69.9992 101.7821 0003170 269.3976  90.6819 14.98325419258628","mean_motion":14.98325419,"eccentricity":0.000317,"inclination_deg":69.9992,"raan_deg":101.7821,"arg_perigee_deg":269.3976,"mean_anomaly_deg":90.6819,"bstar":6.8896e-5,"rev_number":25862,"period_min":96.107292964507,"perigee_km":569.86684170794,"apogee_km":574.2732729823,"semimajor_km":6950.2070573451,"source":"CELESTRAK","updated_at":"2026-05-25T13:38:16.791842Z"}}